C/2022 QE78 ( ATLAS )

Japanese version
Home page
Updated on March 27, 2023

---------------------------------------------------------------------

* Profile

Discovery Date August 27, 2022
Magnitude 19.4 mag
Discoverer Asteroid Terrestrial-Impact Last Alert System (ATLAS) search program

* Pictures

* Orbital Elements

Epoch 2023 Feb. 25.0 TT = JDT 2460000.5
T 2025 Sept. 10.39591 TT                                Rudenko
q   5.4832008            (2000.0)            P               Q
z  -0.0004853      Peri.    0.34287     -0.50327788     -0.69312823
 +/-0.0000077      Node   119.94187     +0.79139458     -0.60950779
e   1.0026610      Incl.   36.54892     +0.34699568     +0.38480321
>From 447 observations 2022 Aug. 27-2023 Mar. 1, mean residual 0".4.

* Finding Charts

* Magnitudes Graph

        m1 = 4.0 + 5 log d + 10.0 log r

---------------------------------------------------------------------

The orbital elements are published on M.P.E.C. 2023-E68.
The charts are made with StellaNavigator Ver.10 (AstroArts).
The magnitudes graphs are made with Comet for Windows.

---------------------------------------------------------------------

Copyright(C) Seiichi Yoshida (comet@aerith.net). All rights reserved.